Wind_Speed
42 43 44 44 43 43 42 41 41 40 40 40 40 40 39 39 39 40 39 37 35 34 33 31 30 29 28 26 25 24 23 22 21 20 20 20 19 20
42 43 44 45 45 44 44 43 42 43 42 41 41 41 41 41 42 41 40 39 38 36 35 34 32 31 29 27 26 25 24 22 21 20 20 19 19 19
44 44 45 46 46 45 45 45 44 43 43 43 44 43 43 43 43 43 42 41 40 38 37 36 34 32 31 29 28 26 24 23 21 20 20 19 18 18
45 45 46 47 46 46 46 46 45 45 45 45 45 45 46 45 45 45 43 43 42 40 40 38 36 35 33 31 30 28 26 25 23 21 20 20 19 18
45 45 46 47 47 47 47 47 47 47 47 46 45 46 46 47 47 47 45 45 44 43 42 41 39 37 35 34 32 30 28 26 25 23 21 20 19 19
44 45 46 47 48 48 48 47 48 49 49 48 47 47 48 47 48 47 46 46 46 45 44 43 41 40 37 36 35 33 31 28 27 25 23 22 21 19
43 44 45 47 48 49 49 49 49 49 49 50 49 49 50 49 49 48 48 48 47 47 46 45 43 42 40 39 37 34 33 31 29 27 25 23 22 21
42 43 44 45 47 48 49 50 50 50 50 50 52 51 51 50 50 49 49 49 48 48 47 46 45 44 43 41 38 36 34 32 30 29 27 25 24 22
40 42 44 45 46 48 48 49 51 51 51 51 52 53 54 53 52 50 51 51 50 50 49 48 47 46 45 43 41 39 36 34 33 31 29 27 26 25
37 39 41 44 46 47 48 49 51 52 52 52 52 53 55 54 55 52 50 51 52 52 51 50 49 48 47 45 43 41 38 36 35 33 31 30 28 27
34 36 38 41 44 46 47 48 50 52 53 53 54 54 56 55 55 56 53 52 52 52 52 51 50 49 48 47 45 42 40 38 37 35 33 31 30 28
30 32 34 37 41 44 45 46 48 50 52 53 53 54 55 56 56 56 56 54 53 53 52 52 51 50 49 48 46 43 41 39 38 36 35 32 31 30
27 29 31 33 36 39 43 45 46 48 50 51 52 53 54 54 55 56 56 54 52 52 52 51 52 51 50 48 47 45 43 40 39 38 36 34 32 31
22 24 27 29 32 35 38 41 44 46 47 49 50 51 52 54 55 56 56 55 54 52 52 52 51 51 50 49 47 46 44 42 40 39 37 36 34 32
18 19 22 24 28 31 34 37 40 43 44 46 48 49 50 52 54 54 55 55 54 53 53 52 50 50 50 48 47 46 44 43 42 40 38 37 35 34
13 15 17 21 25 27 31 34 36 39 41 43 44 47 48 50 52 53 52 53 54 54 54 52 51 51 50 48 48 46 45 44 43 41 40 39 37 35
10 11 13 16 20 24 28 31 34 35 37 39 41 43 45 47 49 50 50 51 51 52 52 52 51 50 49 48 47 46 46 45 44 42 41 40 38 36
8 9 11 13 17 20 24 26 29 33 35 37 38 39 41 43 46 47 48 49 49 50 51 52 52 49 48 47 47 45 45 45 44 42 41 40 38 36
5 6 9 11 13 17 21 24 27 29 32 35 36 38 39 39 41 43 46 47 48 48 49 50 52 50 47 47 46 46 45 44 43 43 42 40 39 38
3 3 6 9 12 15 18 21 24 27 29 33 35 36 37 38 38 40 42 44 45 47 47 48 49 49 47 46 46 46 46 44 43 42 43 41 40 39
3 2 4 7 10 13 16 18 21 24 26 29 31 33 34 36 37 38 40 42 43 44 46 47 47 48 47 46 45 45 44 43 42 42 42 42 41 39
3 1 3 6 9 11 14 16 19 21 24 26 28 30 31 33 35 37 39 40 42 44 45 46 46 45 46 46 45 44 43 43 41 39 39 40 40 39
4 1 2 5 7 9 12 14 17 19 21 23 25 27 29 30 31 34 36 38 40 42 43 44 44 44 44 44 45 45 43 42 42 40 37 36 37 37
Wind_Direction
260 257 253 250 249 247 244 242 239 236 233 230 229 228 224 220 220 219 218 217 217 217 218 218 219 219 220 220 221 223 224 226 229 232 235 239 241 242
260 257 253 250 248 246 244 242 239 235 231 229 227 226 224 221 221 220 219 218 218 217 217 217 218 219 219 219 220 221 223 225 227 231 235 239 241 244
259 256 253 249 247 245 243 241 239 235 231 228 227 225 225 221 220 220 218 217 217 217 218 218 218 218 218 219 219 220 222 224 227 231 234 237 240 243
259 255 252 249 246 244 242 240 238 236 232 228 227 226 224 221 220 219 219 218 218 218 218 218 218 218 218 219 219 220 222 224 227 231 235 237 240 244
259 254 251 248 245 243 241 239 237 235 232 229 226 225 224 222 221 219 219 218 219 219 219 219 219 219 219 219 220 221 223 224 228 231 234 236 239 243
258 253 250 246 244 242 240 238 236 234 231 228 226 224 222 222 221 219 218 218 218 218 218 219 219 220 220 220 221 221 223 225 228 232 233 235 237 240
258 253 249 246 242 241 239 237 235 232 230 228 225 223 221 221 220 220 220 219 218 218 218 219 219 220 221 221 222 223 224 225 228 231 232 234 237 240
257 252 249 246 241 239 238 236 234 232 229 227 224 222 221 221 221 220 220 220 219 217 217 219 220 221 221 222 223 223 225 226 228 231 232 234 237 240
257 253 249 245 241 238 236 234 232 231 229 227 225 223 221 220 220 220 220 221 220 217 218 219 220 219 220 221 222 224 225 226 228 231 234 235 237 241
257 253 248 244 239 237 234 233 231 230 228 227 225 222 221 220 218 217 219 220 220 219 219 219 219 219 220 220 222 224 225 226 228 230 234 236 238 241
259 253 247 242 238 235 233 231 229 228 227 226 224 222 221 220 219 218 218 218 219 218 218 219 219 219 220 220 222 224 225 227 228 230 233 236 238 241
261 252 245 241 237 233 230 228 228 227 226 226 225 222 221 222 220 218 218 219 220 219 219 219 220 220 220 220 222 223 225 227 228 230 233 235 237 239
262 253 245 240 235 232 229 226 226 225 224 223 223 222 221 221 220 220 220 219 220 220 220 220 220 220 221 221 223 224 226 227 228 231 233 235 237 239
264 253 245 236 232 229 227 224 223 222 222 222 222 221 222 221 220 220 219 218 218 218 219 220 220 221 221 222 223 224 226 227 229 231 232 234 236 239
264 251 241 233 229 226 223 222 221 220 221 222 222 221 221 221 220 219 220 219 219 218 218 219 219 221 222 223 224 225 226 227 229 231 232 233 235 238
271 252 239 230 227 224 221 218 218 218 218 219 220 219 219 220 220 219 220 221 220 219 219 219 220 220 222 224 224 224 225 227 228 230 231 233 235 238
275 251 237 229 222 219 217 217 215 214 215 215 215 216 217 218 219 219 219 220 221 220 219 219 219 219 220 223 224 224 225 227 228 229 231 233 235 237
278 251 234 225 219 215 214 215 214 214 214 214 214 215 216 217 218 219 218 218 219 219 220 221 220 219 220 222 224 225 225 226 227 228 230 232 233 235
290 253 230 221 215 211 211 212 211 211 212 213 213 214 214 215 216 216 216 217 218 218 218 220 221 220 221 222 223 224 224 225 226 227 229 230 232 234
314 267 231 217 210 207 208 209 209 210 211 212 211 213 214 214 215 216 215 215 215 215 216 217 219 219 219 219 220 222 223 224 225 226 227 229 232 234
326 276 221 208 203 203 205 206 208 208 209 211 210 212 213 214 214 216 215 214 213 213 213 214 215 217 217 218 220 221 223 224 226 227 228 229 231 234
346 283 207 201 202 204 204 204 206 207 207 208 209 210 211 212 213 214 214 213 212 212 212 213 214 215 218 219 219 221 224 226 226 226 230 231 232 234
22 33 187 197 200 202 202 201 203 205 204 203 206 208 210 211 212 213 213 212 212 211 211 212 213 215 217 218 220 221 223 225 226 226 229 232 233 235
Height
5731 5733 5735 5738 5741 5745 5749 5753 5758 5762 5767 5772 5776 5781 5786 5792 5797 5803 5808 5814 5819 5825 5830 5835 5839 5844 5848 5852 5856 5859 5863 5866 5868 5871 5873 5875 5877 5879
5717 5720 5722 5725 5728 5732 5737 5741 5746 5752 5757 5762 5766 5771 5777 5783 5789 5795 5800 5806 5812 5817 5823 5828 5833 5838 5842 5846 5850 5854 5858 5861 5864 5866 5868 5871 5872 5874
5703 5706 5708 5711 5715 5719 5724 5729 5734 5740 5746 5751 5756 5761 5767 5773 5779 5785 5791 5797 5804 5810 5816 5821 5827 5832 5836 5841 5845 5849 5853 5856 5859 5861 5864 5866 5868 5869
5688 5690 5693 5697 5701 5706 5711 5717 5722 5728 5734 5740 5745 5751 5757 5763 5769 5776 5783 5789 5795 5802 5808 5814 5820 5825 5830 5835 5839 5843 5847 5851 5854 5857 5859 5861 5863 5865
5671 5674 5678 5682 5687 5692 5697 5703 5709 5715 5721 5728 5734 5740 5746 5752 5759 5766 5773 5780 5787 5793 5800 5806 5812 5818 5823 5828 5833 5837 5841 5845 5849 5851 5854 5856 5858 5860
5655 5658 5662 5666 5672 5677 5683 5689 5695 5702 5709 5716 5722 5728 5735 5742 5749 5756 5763 5771 5778 5785 5791 5798 5804 5810 5816 5821 5826 5831 5835 5839 5843 5846 5849 5851 5853 5855
5639 5642 5646 5651 5656 5662 5668 5675 5681 5688 5695 5703 5710 5717 5725 5732 5739 5746 5753 5761 5768 5775 5782 5789 5796 5802 5808 5814 5819 5824 5828 5832 5837 5840 5843 5846 5848 5850
5624 5626 5631 5635 5641 5646 5653 5660 5667 5674 5682 5690 5698 5705 5714 5721 5729 5736 5743 5751 5759 5767 5773 5780 5787 5793 5800 5806 5812 5817 5821 5826 5830 5834 5837 5840 5842 5845
5609 5611 5615 5620 5625 5631 5638 5645 5653 5660 5669 5677 5685 5693 5701 5710 5718 5726 5733 5741 5749 5756 5763 5770 5777 5784 5791 5797 5803 5809 5814 5819 5823 5827 5831 5834 5837 5839
5594 5597 5600 5605 5611 5617 5623 5630 5638 5646 5655 5664 5673 5681 5689 5697 5706 5715 5722 5730 5738 5745 5753 5761 5768 5775 5782 5789 5795 5801 5806 5811 5816 5820 5824 5828 5831 5833
5581 5583 5586 5591 5596 5603 5610 5617 5625 5633 5641 5649 5658 5667 5676 5685 5694 5703 5711 5719 5727 5735 5743 5751 5758 5766 5773 5780 5786 5793 5798 5803 5808 5813 5817 5821 5824 5827
5569 5571 5574 5578 5583 5589 5596 5604 5612 5620 5628 5637 5646 5654 5663 5672 5682 5691 5700 5708 5716 5725 5733 5741 5749 5756 5764 5771 5777 5784 5790 5795 5800 5805 5810 5813 5817 5820
5559 5561 5564 5567 5572 5577 5584 5592 5599 5607 5616 5624 5633 5642 5650 5660 5669 5679 5688 5698 5706 5714 5723 5731 5739 5747 5755 5762 5768 5775 5781 5787 5793 5798 5802 5806 5810 5813
5550 5552 5554 5558 5562 5567 5574 5581 5589 5596 5605 5613 5622 5631 5640 5648 5657 5667 5676 5686 5695 5704 5713 5721 5729 5737 5745 5752 5759 5766 5772 5778 5784 5789 5794 5798 5802 5806
5544 5545 5547 5550 5554 5560 5566 5572 5579 5587 5596 5604 5612 5621 5629 5638 5647 5656 5665 5675 5685 5693 5702 5710 5719 5727 5735 5743 5750 5757 5763 5770 5775 5781 5786 5790 5794 5798
5539 5540 5541 5544 5548 5553 5559 5565 5572 5580 5587 5595 5603 5611 5620 5629 5638 5647 5656 5665 5674 5683 5691 5700 5708 5717 5725 5733 5741 5747 5754 5761 5767 5772 5777 5782 5786 5790
5535 5536 5537 5540 5544 5548 5553 5559 5566 5573 5580 5588 5595 5603 5611 5620 5629 5637 5646 5655 5665 5673 5682 5690 5698 5707 5715 5724 5731 5738 5745 5752 5758 5763 5769 5774 5778 5782
5533 5533 5535 5537 5540 5544 5549 5554 5560 5567 5574 5581 5588 5596 5604 5612 5620 5629 5637 5646 5655 5664 5672 5681 5689 5698 5707 5715 5722 5729 5736 5742 5748 5754 5760 5765 5770 5773
5532 5532 5533 5535 5538 5541 5546 5551 5556 5562 5568 5575 5582 5590 5598 5605 5613 5621 5629 5637 5646 5654 5663 5671 5680 5689 5697 5705 5712 5719 5726 5733 5739 5745 5751 5756 5761 5765
5531 5531 5532 5534 5536 5539 5543 5548 5553 5558 5564 5570 5577 5584 5591 5598 5606 5613 5621 5629 5637 5645 5654 5662 5671 5680 5688 5695 5702 5709 5716 5723 5730 5736 5742 5747 5751 5756
5531 5531 5532 5533 5535 5538 5542 5546 5550 5555 5560 5566 5572 5578 5585 5592 5599 5606 5614 5621 5629 5638 5646 5654 5662 5670 5677 5685 5693 5701 5707 5714 5720 5727 5732 5737 5742 5747
5532 5532 5532 5533 5535 5538 5541 5544 5548 5552 5557 5562 5568 5574 5580 5586 5592 5599 5607 5614 5622 5629 5637 5645 5653 5661 5669 5677 5685 5692 5699 5705 5712 5718 5723 5729 5733 5738
5533 5533 5533 5534 5535 5537 5540 5543 5546 5550 5555 5560 5565 5570 5576 5581 5587 5593 5599 5606 5614 5621 5629 5637 5645 5653 5660 5668 5676 5683 5690 5697 5703 5709 5715 5720 5725 5730